When you browse on this site, cookies collect data to enhance your experience and personalize the content and advertising you see.
Visit our Privacy Policy to learn more. By continuing to use the site, you agree to this use of cookies and data.

Stündliche Wetter Cam Ranh

Heute, 10 Juli, Freitag

Zeit Temperatur Niederschläge Wind Luftdruck Luftfeuchtigkeit
00:00 +28°C° 0 mm 3 m/S 751 mmHg 86%
01:00 +28°C° 0 mm 3 m/S 751 mmHg 86%
02:00 +28°C° 0 mm 3 m/S 750 mmHg 86%
03:00 +27°C° 0 mm 3 m/S 750 mmHg 86%
04:00 +27°C° 0 mm 2 m/S 750 mmHg 86%
05:00 +28°C° 0 mm 2 m/S 750 mmHg 83%
06:00 +29°C° 0 mm 2 m/S 750 mmHg 81%
07:00 +29°C° 0 mm 2 m/S 751 mmHg 78%
08:00 +30°C° 0 mm 3 m/S 751 mmHg 73%
09:00 +33°C° 0 mm 3 m/S 751 mmHg 68%
10:00 +34°C° 0 mm 4 m/S 751 mmHg 63%
11:00 +34°C° 0 mm 4 m/S 751 mmHg 62%
12:00 +35°C° 0 mm 5 m/S 750 mmHg 61%
13:00 +35°C° 0 mm 6 m/S 750 mmHg 61%
14:00 +35°C° 0.1 mm 6 m/S 750 mmHg 64%
15:00 +34°C° 0.1 mm 6 m/S 749 mmHg 67%
16:00 +34°C° 0.1 mm 6 m/S 749 mmHg 70%
17:00 +33°C° 0.2 mm 6 m/S 749 mmHg 75%
18:00 +30°C° 0.2 mm 6 m/S 750 mmHg 80%
19:00 +29°C° 0.2 mm 6 m/S 750 mmHg 85%
20:00 +29°C° 0.1 mm 5 m/S 751 mmHg 86%
21:00 +29°C° 0.1 mm 5 m/S 751 mmHg 87%
22:00 +28°C° 0.1 mm 5 m/S 752 mmHg 88%
23:00 +28°C° 0 mm 4 m/S 751 mmHg 88%

Morgen, 11 Juli, Samstag

Zeit Temperatur Niederschläge Wind Luftdruck Luftfeuchtigkeit
00:00 +28°C° 0 mm 4 m/S 751 mmHg 88%
01:00 +28°C° 0 mm 4 m/S 751 mmHg 89%
02:00 +27°C° 0 mm 4 m/S 750 mmHg 88%
03:00 +27°C° 0 mm 4 m/S 750 mmHg 88%
04:00 +27°C° 0 mm 3 m/S 750 mmHg 87%
05:00 +28°C° 0 mm 3 m/S 750 mmHg 84%
06:00 +28°C° 0 mm 2 m/S 750 mmHg 81%
07:00 +29°C° 0 mm 1 m/S 751 mmHg 78%
08:00 +30°C° 0 mm 1 m/S 751 mmHg 73%
09:00 +31°C° 0 mm 1 m/S 751 mmHg 68%
10:00 +33°C° 0 mm 1 m/S 751 mmHg 62%
11:00 +34°C° 0 mm 2 m/S 750 mmHg 61%
12:00 +34°C° 0 mm 2 m/S 750 mmHg 61%
13:00 +35°C° 0 mm 2 m/S 750 mmHg 60%
14:00 +34°C° 0.3 mm 3 m/S 749 mmHg 65%
15:00 +33°C° 0.3 mm 4 m/S 749 mmHg 70%
16:00 +33°C° 0.3 mm 5 m/S 748 mmHg 75%
17:00 +32°C° 0.2 mm 5 m/S 749 mmHg 78%
18:00 +30°C° 0.2 mm 5 m/S 750 mmHg 81%
19:00 +29°C° 0.2 mm 5 m/S 750 mmHg 85%
20:00 +29°C° 0 mm 5 m/S 751 mmHg 85%
21:00 +28°C° 0 mm 4 m/S 751 mmHg 85%
22:00 +28°C° 0 mm 4 m/S 752 mmHg 85%
23:00 +28°C° 0 mm 4 m/S 751 mmHg 85%

übermorgen, 12 Juli, Sonntag

Zeit Temperatur Niederschläge Wind Luftdruck Luftfeuchtigkeit
00:00 +28°C° 0 mm 4 m/S 751 mmHg 84%
01:00 +28°C° 0 mm 4 m/S 751 mmHg 84%
02:00 +28°C° 0 mm 4 m/S 751 mmHg 83%
03:00 +28°C° 0 mm 3 m/S 750 mmHg 83%
04:00 +28°C° 0 mm 3 m/S 750 mmHg 83%
05:00 +28°C° 0 mm 3 m/S 750 mmHg 80%
06:00 +28°C° 0 mm 2 m/S 751 mmHg 78%
07:00 +29°C° 0 mm 2 m/S 751 mmHg 75%
08:00 +30°C° 0 mm 2 m/S 751 mmHg 70%
09:00 +33°C° 0 mm 3 m/S 751 mmHg 65%
10:00 +34°C° 0 mm 3 m/S 751 mmHg 60%
11:00 +34°C° 0.2 mm 4 m/S 751 mmHg 60%
12:00 +34°C° 0.2 mm 5 m/S 751 mmHg 60%
13:00 +35°C° 0.2 mm 6 m/S 750 mmHg 60%
14:00 +34°C° 0.1 mm 6 m/S 750 mmHg 62%
15:00 +34°C° 0.1 mm 6 m/S 749 mmHg 63%
16:00 +34°C° 0.1 mm 6 m/S 749 mmHg 65%
17:00 +32°C° 0 mm 6 m/S 749 mmHg 71%
18:00 +30°C° 0 mm 5 m/S 750 mmHg 76%
19:00 +29°C° 0 mm 5 m/S 750 mmHg 82%
20:00 +29°C° 0 mm 4 m/S 751 mmHg 83%
21:00 +28°C° 0 mm 4 m/S 751 mmHg 85%
22:00 +28°C° 0 mm 4 m/S 752 mmHg 86%
23:00 +28°C° 0 mm 4 m/S 752 mmHg 86%

13 Juli, Montag

Zeit Temperatur Niederschläge Wind Luftdruck Luftfeuchtigkeit
00:00 +28°C° 0 mm 3 m/S 751 mmHg 86%
01:00 +28°C° 0 mm 3 m/S 751 mmHg 85%
02:00 +28°C° 0 mm 3 m/S 751 mmHg 84%
03:00 +27°C° 0 mm 2 m/S 750 mmHg 83%
04:00 +27°C° 0 mm 2 m/S 750 mmHg 82%
05:00 +28°C° 0 mm 2 m/S 750 mmHg 80%
06:00 +28°C° 0 mm 2 m/S 751 mmHg 77%
07:00 +29°C° 0 mm 2 m/S 751 mmHg 74%
08:00 +30°C° 0 mm 2 m/S 751 mmHg 69%
09:00 +31°C° 0 mm 2 m/S 752 mmHg 64%
10:00 +34°C° 0 mm 2 m/S 752 mmHg 60%
11:00 +34°C° 0.1 mm 3 m/S 751 mmHg 60%
12:00 +34°C° 0.1 mm 4 m/S 751 mmHg 61%
13:00 +34°C° 0.1 mm 5 m/S 750 mmHg 62%
14:00 +34°C° 0.1 mm 5 m/S 750 mmHg 63%
15:00 +34°C° 0.1 mm 6 m/S 750 mmHg 65%
16:00 +33°C° 0.1 mm 6 m/S 749 mmHg 66%
17:00 +32°C° 0.1 mm 5 m/S 750 mmHg 72%
18:00 +30°C° 0.1 mm 5 m/S 751 mmHg 77%
19:00 +29°C° 0.1 mm 4 m/S 751 mmHg 82%
20:00 +29°C° 0 mm 4 m/S 752 mmHg 84%
21:00 +28°C° 0 mm 4 m/S 752 mmHg 85%
22:00 +28°C° 0 mm 4 m/S 753 mmHg 86%
23:00 +28°C° 0 mm 4 m/S 752 mmHg 86%

14 Juli, Dienstag

Zeit Temperatur Niederschläge Wind Luftdruck Luftfeuchtigkeit
00:00 +28°C° 0 mm 4 m/S 752 mmHg 86%
01:00 +28°C° 0 mm 4 m/S 752 mmHg 86%
02:00 +27°C° 0 mm 3 m/S 751 mmHg 86%
03:00 +27°C° 0 mm 3 m/S 751 mmHg 85%
04:00 +27°C° 0 mm 3 m/S 751 mmHg 85%
05:00 +28°C° 0 mm 2 m/S 751 mmHg 82%
06:00 +28°C° 0 mm 2 m/S 752 mmHg 79%
07:00 +29°C° 0 mm 1 m/S 752 mmHg 76%
08:00 +30°C° 0 mm 1 m/S 752 mmHg 72%
09:00 +31°C° 0 mm 1 m/S 752 mmHg 67%
10:00 +32°C° 0 mm 2 m/S 752 mmHg 63%
11:00 +32°C° 0 mm 2 m/S 752 mmHg 63%
12:00 +34°C° 0 mm 3 m/S 751 mmHg 63%
13:00 +34°C° 0 mm 4 m/S 751 mmHg 63%
14:00 +34°C° 0 mm 5 m/S 751 mmHg 65%
15:00 +33°C° 0 mm 5 m/S 750 mmHg 66%
16:00 +33°C° 0 mm 6 m/S 750 mmHg 68%
17:00 +32°C° 0 mm 6 m/S 751 mmHg 72%
18:00 +30°C° 0 mm 5 m/S 751 mmHg 77%
19:00 +29°C° 0 mm 5 m/S 751 mmHg 81%
20:00 +29°C° 0 mm 5 m/S 752 mmHg 83%
21:00 +28°C° 0 mm 4 m/S 752 mmHg 84%
22:00 +28°C° 0 mm 4 m/S 753 mmHg 86%
23:00 +28°C° 0 mm 3 m/S 752 mmHg 86%

15 Juli, Mittwoch

Zeit Temperatur Niederschläge Wind Luftdruck Luftfeuchtigkeit
00:00 +27°C° 0 mm 3 m/S 752 mmHg 86%
01:00 +27°C° 0 mm 3 m/S 752 mmHg 87%
02:00 +27°C° 0 mm 2 m/S 751 mmHg 86%
03:00 +27°C° 0 mm 2 m/S 751 mmHg 86%
04:00 +27°C° 0 mm 2 m/S 751 mmHg 85%
05:00 +27°C° 0 mm 2 m/S 751 mmHg 81%
06:00 +28°C° 0 mm 1 m/S 752 mmHg 77%
07:00 +29°C° 0 mm 1 m/S 752 mmHg 73%
08:00 +30°C° 0 mm 2 m/S 752 mmHg 69%
09:00 +31°C° 0 mm 2 m/S 752 mmHg 65%
10:00 +34°C° 0 mm 3 m/S 752 mmHg 60%
11:00 +34°C° 0 mm 4 m/S 751 mmHg 61%
12:00 +34°C° 0 mm 5 m/S 751 mmHg 61%
13:00 +35°C° 0 mm 6 m/S 750 mmHg 62%
14:00 +34°C° 0 mm 6 m/S 750 mmHg 64%
15:00 +34°C° 0 mm 6 m/S 749 mmHg 66%
16:00 +33°C° 0 mm 6 m/S 749 mmHg 68%
17:00 +32°C° 0 mm 5 m/S 749 mmHg 73%
18:00 +30°C° 0 mm 5 m/S 749 mmHg 78%
19:00 +29°C° 0 mm 5 m/S 750 mmHg 83%
20:00 +29°C° 0 mm 4 m/S 750 mmHg 85%
21:00 +28°C° 0 mm 4 m/S 751 mmHg 86%
22:00 +28°C° 0 mm 3 m/S 751 mmHg 87%
23:00 +28°C° 0 mm 3 m/S 751 mmHg 88%
Mehr zeigen